Dewpoint
61 59 50 47 50 44 35 35 22 23 27 17 15 14 13 10 12 7 5 5 2 33 28 23 21 42 52 53 54 55 56 56 56 53 53 63 65 66 67 67 68 70 71 72 73 74 74 75 74 74 74 74 74 74 74 74 74 74 74 73 74 73 73 73 73 73 73 73 72 72 72 72 72 72 72 72 72 72 72 71 70 69 69 70 71 70 69 70 69 69 69 68 68 68 68 68 69
52 47 49 47 44 41 35 30 27 23 25 15 13 13 11 13 16 10 5 4 31 32 31 33 28 50 56 56 56 56 56 58 60 62 64 64 65 66 67 68 69 70 71 72 73 73 73 74 74 74 74 74 74 74 74 74 74 74 74 73 74 73 73 73 73 73 73 72 72 72 72 72 72 71 72 72 72 72 72 71 70 69 69 69 69 69 69 69 69 69 69 69 68 68 68 69 69
45 46 43 45 43 40 32 33 25 23 18 13 12 11 11 8 7 9 16 35 33 31 32 30 45 49 56 56 55 55 54 58 61 64 64 65 64 64 66 68 69 70 71 71 72 73 73 74 74 74 74 74 74 74 74 74 74 73 74 73 73 73 73 73 73 73 72 72 72 72 71 72 72 72 71 72 73 73 73 72 70 69 69 68 68 68 68 69 69 69 69 68 68 68 68 68 68
57 48 44 45 33 32 30 32 29 22 17 15 15 16 13 10 7 3 35 38 36 34 32 46 53 55 56 55 56 60 59 57 62 64 64 65 64 65 66 68 69 69 70 70 71 72 73 74 74 74 74 74 74 74 74 74 73 73 73 74 73 73 73 73 73 73 72 72 72 72 71 71 71 71 72 72 73 72 72 71 71 69 69 68 68 69 69 69 69 69 69 69 69 68 68 68 68
54 48 46 46 34 32 32 31 28 23 19 18 13 14 14 8 10 15 18 31 35 32 32 48 55 60 61 60 59 57 59 62 63 65 65 65 66 65 66 66 67 68 69 69 71 72 73 74 74 74 74 74 74 74 74 73 73 73 74 73 73 73 73 73 73 72 72 72 72 72 71 71 71 71 71 71 71 72 71 71 71 71 71 71 71 72 71 70 69 70 69 69 69 68 68 68 68
45 41 43 45 35 32 25 26 21 23 24 21 17 15 11 2 10 11 12 14 22 23 28 52 53 58 59 60 61 61 62 60 64 66 66 65 65 66 65 66 66 67 68 70 71 72 73 74 74 73 73 74 74 74 73 73 73 74 74 73 73 73 73 73 72 72 72 72 72 71 71 71 71 71 71 71 71 70 70 70 71 71 70 69 69 69 69 69 69 69 69 68 68 68 67 68 68
38 39 38 40 33 27 29 27 23 19 16 18 19 18 15 4 6 13 13 12 10 17 21 54 59 59 59 60 62 62 62 63 65 65 67 66 67 66 65 64 66 67 69 70 72 73 73 73 73 73 73 73 73 74 74 74 74 73 73 73 73 73 73 73 72 72 72 72 72 71 71 71 71 71 71 71 72 71 70 70 70 70 70 70 69 69 69 69 69 69 69 69 68 68 69 69 69
39 30 31 25 21 24 23 22 22 23 22 17 12 12 12 4 3 3 4 5 8 11 17 50 54 57 58 61 60 62 64 66 66 68 67 67 67 67 66 64 66 68 69 70 72 72 74 73 73 73 74 74 74 74 73 73 74 73 73 73 73 73 73 73 72 72 72 72 72 71 71 71 71 71 71 71 71 71 70 70 69 69 69 69 69 69 69 69 70 69 69 69 69 69 69 69 69
27 24 31 26 21 20 15 19 19 20 19 17 13 14 37 11 9 9 6 5 13 16 10 14 56 57 60 61 61 64 65 67 67 69 69 69 69 68 66 65 66 68 69 70 72 72 73 73 73 73 73 74 73 73 73 74 73 73 73 73 73 73 73 73 72 72 72 72 72 71 71 71 71 71 71 71 71 71 71 70 70 69 69 69 69 68 68 69 70 69 69 69 69 69 69 69 68
23 23 26 23 15 10 4 3 7 9 11 9 6 4 3 7 10 9 5 6 6 6 40 58 58 59 61 60 62 64 65 67 68 69 69 71 71 71 68 68 69 69 70 71 71 72 72 74 73 73 73 73 73 73 73 73 73 73 73 73 73 73 73 73 72 72 72 72 72 71 71 71 71 71 71 71 71 71 71 71 70 70 70 69 69 69 69 70 70 69 69 69 69 69 69 68 68
22 21 30 24 24 14 10 5 2 1 1 2 0 -2 3 6 6 8 8 8 9 5 44 58 58 59 61 62 63 67 68 68 68 68 70 70 70 70 68 69 70 70 70 70 71 72 72 72 73 73 73 73 73 73 73 73 73 73 73 73 73 73 73 73 72 72 72 71 71 71 71 71 71 71 71 71 71 71 70 71 70 69 70 69 69 69 70 70 70 69 69 69 69 69 69 68 67
21 17 19 18 19 18 15 8 4 3 2 2 0 5 4 7 6 10 11 11 8 2 5 54 58 61 61 62 63 66 68 68 69 69 70 70 69 70 69 69 70 70 70 69 71 71 72 72 72 73 73 72 72 73 73 73 72 73 73 72 72 73 72 72 72 71 71 71 71 71 71 71 71 71 71 71 71 70 70 70 70 70 69 69 69 69 69 70 70 69 69 69 69 68 68 68 67
22 14 13 17 17 17 17 15 11 13 9 4 -2 8 7 9 10 11 12 12 13 10 2 49 61 60 60 61 64 67 67 68 69 70 69 68 69 70 70 69 70 70 69 70 70 71 71 71 72 72 72 72 72 72 72 72 72 72 72 72 72 72 72 72 71 71 71 71 71 71 71 71 71 71 70 70 70 70 70 70 70 70 69 69 69 69 69 69 69 69 69 69 69 69 68 68 68
20 17 18 12 13 9 5 1 -1 -3 -5 4 11 14 14 12 14 17 17 15 17 41 55 59 61 62 62 63 65 65 66 67 68 69 69 70 70 70 70 69 69 69 69 69 69 70 70 70 71 71 71 71 71 72 72 72 72 72 72 72 72 72 72 72 71 71 71 71 71 71 71 71 71 71 71 71 70 70 71 70 69 69 69 69 69 68 69 69 69 69 69 69 69 69 68 68 68
18 19 19 15 10 11 8 2 -3 -4 -5 4 8 12 15 18 18 20 19 19 40 52 56 60 59 57 59 61 62 65 66 67 68 68 69 69 70 70 69 68 68 68 68 68 68 68 69 69 70 71 71 71 71 71 71 71 72 72 72 72 72 72 71 71 71 71 71 71 71 71 71 71 71 71 71 70 70 70 70 70 70 69 69 68 68 67 68 68 68 69 68 68 68 68 68 67 68
14 14 18 19 12 9 9 10 10 5 -2 5 7 11 9 13 20 20 22 19 50 57 56 51 53 56 61 61 63 66 67 67 68 69 68 69 69 69 68 68 67 67 67 67 67 67 68 69 69 69 70 71 71 71 71 71 72 72 72 72 71 71 71 71 71 71 71 71 71 70 71 71 70 70 70 71 70 70 70 70 70 69 68 68 67 67 67 67 67 67 68 68 68 68 67 67 67
12 12 14 16 11 10 8 7 5 5 -0 7 9 8 9 12 21 21 23 32 54 56 59 61 58 57 60 62 65 66 67 68 68 68 68 67 67 67 67 67 66 66 67 66 66 66 66 68 68 68 70 71 71 70 70 71 71 72 72 72 71 71 71 71 71 71 71 70 70 70 69 70 70 70 70 70 71 70 70 70 69 69 68 68 68 68 67 67 66 66 67 68 68 68 68 69 69
13 14 13 11 11 9 9 7 7 3 8 9 10 10 9 7 22 28 27 53 55 58 60 62 64 64 64 65 66 66 67 68 68 67 67 66 66 66 66 66 66 65 65 65 65 66 66 67 67 69 69 70 70 70 70 70 71 71 70 71 71 70 70 70 70 70 70 68 69 68 68 70 69 69 70 71 70 70 70 70 69 69 68 68 68 68 68 67 67 66 67 68 68 68 69 65 65
11 16 14 9 9 9 10 11 11 4 3 7 14 11 11 10 18 33 30 42 54 56 60 62 63 63 64 64 64 66 67 67 67 67 66 66 66 65 65 66 66 65 64 64 64 65 66 67 67 68 68 69 69 69 69 70 69 69 69 69 69 69 69 69 69 69 68 68 67 67 68 68 69 69 69 70 70 70 70 70 69 69 68 68 67 67 67 67 67 67 67 67 67 67 65 64 63
13 12 12 11 11 10 10 10 8 7 6 7 9 11 11 9 11 24 23 36 53 54 58 61 62 62 63 63 64 66 66 66 67 66 66 66 66 65 65 65 65 65 64 63 63 66 67 67 67 67 68 68 68 68 69 69 69 68 68 68 68 67 68 68 67 68 68 68 68 67 67 68 68 68 70 68 69 70 70 70 69 69 68 67 67 67 66 66 65 65 66 66 67 66 61 62 61
10 9 8 9 11 10 10 10 9 6 7 8 10 13 11 7 13 13 31 46 49 51 55 60 61 62 62 63 64 65 66 66 66 66 66 66 66 65 65 65 65 65 65 65 65 66 67 67 67 67 68 68 68 68 68 68 68 68 68 68 67 67 67 67 67 67 67 68 68 68 68 67 67 68 68 68 68 69 68 67 67 67 67 66 67 65 65 65 65 64 64 66 63 63 62 62 62
7 7 9 9 10 9 10 10 7 6 11 7 8 10 10 8 11 10 10 40 45 48 54 60 62 62 63 64 64 65 65 65 66 66 66 66 65 65 65 64 65 65 65 65 65 66 67 68 68 67 68 68 68 67 68 68 68 68 68 68 67 66 66 66 66 67 66 66 67 68 68 66 67 67 67 67 67 67 68 67 67 66 66 66 67 65 65 65 64 64 63 62 62 64 63 63 63
5 5 8 10 10 9 10 9 6 12 10 8 8 8 7 7 9 11 18 38 44 48 54 58 61 62 64 65 65 65 65 65 65 65 65 65 66 65 64 64 65 65 65 64 65 65 66 67 68 68 67 67 68 68 68 68 68 68 68 67 67 66 65 65 66 67 66 66 66 68 66 65 66 66 66 66 66 67 66 67 67 67 66 67 66 65 66 66 65 66 65 64 64 64 65 65 66
6 3 6 8 10 10 10 8 7 10 10 13 13 10 7 8 12 13 40 45 46 46 51 57 60 62 64 65 65 65 65 65 65 66 66 66 66 66 65 65 65 65 64 64 64 65 66 67 67 67 67 67 68 68 67 68 68 68 68 68 66 67 65 66 67 67 66 66 67 67 67 65 66 66 66 65 64 65 65 66 67 66 66 66 68 67 65 65 66 65 65 64 65 65 66 65 66
4 3 4 7 10 9 9 8 7 10 11 9 11 9 6 7 11 8 35 46 47 47 51 56 60 62 64 65 65 65 65 65 65 66 66 66 67 66 67 65 65 64 64 64 64 65 65 67 67 67 67 67 66 67 67 68 68 68 67 67 66 67 65 66 66 66 66 66 67 68 67 65 66 66 64 65 65 65 66 67 67 66 65 66 67 66 66 66 65 65 65 65 64 65 66 65 66
3 2 5 7 8 9 9 9 8 4 8 8 7 5 3 4 7 6 16 44 45 47 50 55 59 62 63 64 65 65 65 65 66 66 65 66 67 66 66 64 64 65 65 64 66 65 66 68 68 67 67 68 68 68 67 68 67 67 67 68 67 68 66 66 67 67 66 66 66 66 66 66 65 65 65 66 66 66 65 65 65 65 65 65 65 65 66 65 65 65 64 64 64 64 66 65 65
2 1 2 4 5 7 8 8 8 10 15 9 8 5 2 5 8 3 8 42 44 49 50 53 57 60 62 64 64 65 65 64 65 65 66 66 66 66 66 65 64 64 64 65 65 65 66 66 66 67 67 67 68 67 67 67 67 67 68 68 67 67 67 68 67 66 66 66 66 65 66 66 65 66 65 65 65 65 64 64 63 64 64 64 64 65 65 65 66 65 64 63 64 64 64 66 66
3 4 4 1 5 6 7 7 5 7 9 11 11 7 5 4 5 3 3 22 45 48 49 51 55 59 61 62 64 64 64 65 65 65 65 65 65 65 64 62 62 64 64 64 64 65 65 66 68 67 67 67 67 67 67 66 66 68 68 67 67 67 68 67 66 66 67 66 66 65 65 66 67 65 64 64 65 64 63 63 63 63 64 64 65 65 65 65 64 65 65 65 64 64 64 65 66
5 6 5 4 2 3 10 7 7 9 9 10 9 7 2 3 0 3 3 5 43 46 48 50 53 58 60 61 62 62 63 64 65 65 65 65 65 66 62 63 63 63 64 65 64 64 64 66 66 67 66 66 66 66 66 66 67 68 68 67 67 68 68 67 66 65 65 65 65 65 65 66 66 65 64 65 65 64 64 63 63 64 65 66 66 65 65 64 64 64 64 64 64 64 64 65 66
6 6 5 5 5 5 7 11 8 6 12 10 8 6 3 1 0 0 2 4 35 46 48 49 51 54 56 59 60 60 62 64 64 64 64 65 65 63 63 63 64 63 63 64 64 64 65 66 67 66 66 65 66 66 67 67 67 67 68 68 68 68 67 66 66 65 65 65 65 65 65 66 66 65 64 64 64 64 65 64 64 64 65 66 65 65 65 65 64 63 63 64 65 65 65 64 64
5 5 6 8 8 6 10 9 6 4 7 9 3 5 6 2 0 -0 1 3 19 40 45 47 48 48 55 59 59 59 62 64 64 64 64 64 62 63 63 63 63 63 63 63 64 64 65 66 66 65 65 65 66 66 66 67 68 68 67 67 68 68 66 65 65 65 65 64 64 65 65 65 66 65 65 65 64 64 64 64 64 65 65 65 65 64 64 65 64 64 63 64 62 63 64 65 64
12 7 6 5 6 7 7 8 7 2 5 6 4 10 7 2 0 0 1 0 9 33 40 42 46 50 55 57 58 58 62 64 64 64 64 63 62 63 63 63 64 63 63 64 64 65 65 65 65 65 65 65 65 66 66 66 67 66 66 68 66 66 65 65 66 66 65 65 64 63 65 65 65 65 65 66 65 64 64 64 64 65 66 65 64 63 64 64 64 64 63 63 63 63 64 64 64
14 10 22 10 6 5 4 4 4 4 2 4 4 6 3 3 2 1 1 -0 14 20 31 34 46 50 52 55 57 58 62 63 63 63 64 61 62 63 63 63 63 64 64 64 64 64 64 65 65 64 64 64 65 65 65 65 66 66 66 66 65 66 67 66 66 66 65 64 64 64 64 64 65 66 66 65 65 64 64 64 64 65 65 64 64 64 63 64 63 64 62 63 63 62 62 64 64
16 10 10 12 6 8 2 3 2 1 1 1 4 3 8 10 3 2 0 -1 18 20 23 35 46 50 50 51 55 59 61 62 62 62 63 61 62 64 64 63 63 64 64 64 64 64 64 64 63 63 63 64 64 64 64 64 64 65 65 66 66 66 65 64 63 63 65 65 65 64 65 65 66 66 66 65 64 64 65 64 64 64 64 64 63 63 63 63 64 63 62 62 63 62 62 62 62
18 18 14 8 5 6 3 0 -1 -2 -1 1 5 5 5 3 5 6 5 -0 12 23 23 27 47 50 50 53 56 58 60 61 62 62 60 62 62 63 64 64 63 64 64 63 63 63 63 63 63 63 63 63 63 63 64 64 64 63 64 64 64 64 63 64 63 63 64 65 64 65 66 66 65 66 66 66 64 65 64 63 63 63 63 63 63 62 63 63 63 63 62 62 63 63 62 63 62
9 10 13 9 9 3 2 1 1 -4 1 -1 4 3 3 4 4 5 12 13 14 24 27 28 48 49 53 55 56 57 58 59 60 61 61 62 62 62 62 63 63 64 63 63 63 63 63 63 63 63 63 63 63 63 64 63 63 62 61 62 62 63 62 62 63 63 63 63 64 65 66 65 65 65 66 66 65 64 63 63 63 63 63 63 62 61 62 63 63 62 62 62 62 63 64 63 63
9 7 6 4 4 9 5 0 -2 -3 -2 1 5 6 3 4 5 9 10 12 22 21 26 29 47 51 52 53 55 56 58 58 59 61 61 62 61 62 62 63 63 64 63 63 63 63 63 63 63 63 63 63 63 63 63 63 62 62 62 61 60 59 60 61 62 63 63 63 64 64 65 65 65 65 65 65 65 66 64 63 63 63 64 63 62 62 62 63 63 63 63 62 62 62 62 63 62
17 14 11 8 7 10 12 10 1 -3 18 4 8 8 3 7 9 9 17 17 21 28 26 28 47 50 51 51 51 53 56 58 59 60 60 61 61 62 63 63 63 63 63 63 62 63 63 63 63 63 63 63 63 63 63 63 63 63 61 59 57 58 58 58 58 59 60 62 63 63 63 63 64 64 65 65 65 64 64 64 64 64 63 63 63 63 62 64 63 63 62 61 62 61 61 62 61
23 19 14 15 15 16 15 14 5 -1 13 5 5 6 9 8 10 9 26 24 22 28 29 27 46 50 50 49 50 54 56 57 58 59 60 61 60 61 63 63 63 63 63 63 63 63 63 63 63 63 63 63 63 63 63 62 63 64 60 58 56 58 59 58 58 60 60 59 60 61 61 61 62 63 63 64 63 64 64 63 63 63 64 64 63 62 62 62 62 62 61 60 60 61 61 62 61
21 18 17 17 17 16 12 22 9 6 22 20 9 6 17 19 18 20 22 26 24 27 30 31 34 47 47 47 53 55 56 57 58 59 59 60 61 62 63 63 63 63 63 63 63 63 63 63 63 63 63 63 63 64 63 61 62 61 60 57 56 56 57 59 58 58 57 58 58 60 61 61 60 60 61 62 62 63 63 62 63 62 63 63 63 62 62 62 61 61 61 60 60 59 59 60 61
31 32 21 17 17 16 14 23 24 33 29 32 22 26 24 24 14 13 24 29 34 26 26 28 29 45 53 53 54 55 55 57 58 58 59 60 61 62 62 62 63 62 62 63 63 63 63 62 63 63 63 63 63 62 62 62 59 57 56 56 55 54 53 53 54 56 57 59 58 57 58 57 57 58 58 58 59 60 62 62 62 62 62 62 62 61 62 63 62 62 62 60 59 59 58 58 60
26 33 28 22 20 19 17 21 17 24 18 31 15 15 20 25 21 18 18 21 26 26 26 26 31 52 52 53 54 54 55 56 57 58 58 59 61 62 62 62 62 62 62 62 63 63 63 63 63 63 63 62 61 61 61 62 57 54 53 52 52 52 52 53 53 52 55 57 57 58 59 58 58 56 58 60 62 61 60 61 61 60 60 62 61 61 62 62 62 63 62 61 60 60 59 58 57
23 24 25 21 16 19 18 15 17 18 15 24 29 12 20 23 17 18 22 25 27 29 30 31 30 52 53 54 54 54 55 56 57 58 58 59 60 61 61 61 62 62 62 63 63 63 63 63 63 63 63 61 61 61 61 61 57 55 54 53 52 52 53 55 54 55 56 57 56 55 56 58 58 58 58 58 59 59 58 58 59 58 59 59 61 59 59 61 62 62 62 62 60 60 59 58 58
19 28 19 16 11 13 21 17 12 13 31 34 28 20 17 17 17 18 21 26 28 27 30 41 51 53 53 54 54 54 55 56 57 57 58 59 60 60 60 61 62 62 63 63 63 63 63 63 63 63 62 62 62 62 61 61 58 56 55 53 54 56 56 55 54 55 55 56 56 57 57 55 55 56 57 59 60 60 59 58 59 58 60 59 59 58 59 60 61 62 61 61 61 60 59 59 58
19 24 15 11 9 13 11 8 16 23 26 19 25 22 17 17 20 23 20 18 28 28 33 47 50 51 52 53 53 54 55 56 56 57 57 58 60 60 60 61 62 63 63 63 63 63 63 63 63 63 62 61 61 61 61 61 58 56 55 55 58 57 56 55 55 54 53 55 55 56 57 57 58 58 58 58 57 57 59 57 56 56 57 58 59 59 59 60 61 60 60 61 60 61 60 59 59
15 12 13 12 10 9 9 12 7 24 17 18 23 27 17 19 26 20 19 16 22 29 40 46 50 51 52 53 54 55 55 55 56 57 57 58 59 60 60 61 62 62 62 63 63 63 63 64 63 62 61 61 61 61 61 61 58 58 58 59 56 55 54 54 54 53 53 56 56 57 56 56 55 55 55 54 55 57 57 55 55 56 57 57 58 58 59 59 58 59 60 60 60 60 60 60 59
16 13 10 9 8 14 14 14 18 20 16 21 26 31 20 16 27 26 23 25 28 33 41 46 49 50 51 51 54 55 55 55 56 56 57 58 59 59 60 60 61 61 62 62 63 63 63 63 62 61 61 61 61 61 60 60 59 60 59 56 55 53 54 54 53 54 55 53 54 55 55 55 55 55 56 56 55 55 56 58 57 58 57 59 58 57 57 58 58 59 60 60 60 59 59 59 59
9 14 12 10 16 20 20 20 16 9 15 21 18 20 23 15 23 29 32 35 33 38 43 47 49 50 51 51 54 55 56 56 56 55 56 57 58 59 60 60 60 61 61 61 62 62 62 61 61 61 60 60 60 61 61 61 60 61 59 55 55 55 54 54 53 54 53 52 54 56 55 55 55 55 54 53 52 54 56 56 57 56 56 56 55 55 54 54 56 57 58 58 59 59 59 59 58
7 13 13 17 19 14 16 10 9 10 17 19 15 14 21 20 31 36 38 38 41 40 42 48 50 50 51 52 54 56 56 56 56 55 56 57 57 59 59 59 60 60 60 61 61 62 62 61 61 60 60 60 61 61 61 60 60 60 58 55 55 55 54 54 54 53 53 53 56 55 54 53 53 52 53 55 56 56 57 55 54 53 53 53 54 53 54 55 55 54 54 55 56 56 56 56 56
14 11 18 15 16 13 11 17 16 15 20 25 19 16 20 35 33 38 37 38 43 43 45 50 50 50 51 52 54 56 56 56 57 56 56 57 57 59 59 60 60 60 60 61 61 61 62 61 60 60 59 59 60 60 60 59 59 60 59 56 56 55 54 54 54 53 54 55 56 55 53 53 53 53 54 53 53 54 55 55 55 54 53 53 53 53 53 52 52 52 52 52 52 53 53 53 53
12 12 12 21 23 20 13 12 11 14 17 25 15 20 22 24 33 37 37 38 40 41 44 49 51 50 51 52 54 56 57 58 58 57 57 57 57 58 59 60 60 60 60 61 61 61 62 61 61 60 60 60 60 59 58 59 59 60 58 56 56 55 55 55 55 56 54 55 56 55 55 53 52 53 54 53 53 55 55 53 53 53 54 53 52 52 52 51 52 51 52 52 51 51 52 52 51
16 17 10 12 21 22 17 25 20 18 16 22 24 23 32 27 37 38 38 42 44 44 45 48 49 50 50 51 54 55 55 56 57 56 57 58 58 58 59 59 60 60 60 61 61 62 61 61 61 61 61 61 60 60 59 59 59 59 58 56 57 56 56 56 56 55 55 55 55 55 52 52 53 53 53 53 53 51 51 53 54 55 55 55 52 51 51 51 51 50 50 51 51 54 51 52 52
32 16 15 12 26 21 21 23 30 20 23 17 23 29 31 33 35 35 40 45 46 46 46 47 49 49 50 53 54 55 54 55 55 55 56 57 58 58 58 57 58 59 60 60 60 61 61 61 61 62 62 61 61 60 59 59 59 58 57 57 58 56 56 55 54 55 54 54 56 54 53 53 53 52 52 51 51 53 53 53 53 50 49 50 51 51 49 50 51 51 49 49 50 51 52 50 50
25 15 18 17 21 30 22 21 20 19 15 17 26 25 26 28 27 35 41 44 45 45 46 47 49 52 53 53 54 54 54 55 55 55 56 57 57 57 57 57 58 59 59 59 59 58 60 61 61 62 61 61 61 60 60 60 59 59 58 58 58 56 56 55 54 54 55 55 55 54 53 52 52 53 53 53 54 53 53 54 49 50 52 53 52 50 51 51 49 48 48 49 51 51 50 51 53
15 17 15 18 25 20 30 20 13 14 13 16 18 27 30 29 31 34 40 42 44 45 46 47 49 52 53 53 53 53 54 55 56 56 57 57 57 56 57 58 58 59 59 59 59 59 59 59 60 61 61 61 62 61 60 60 60 60 59 57 57 58 57 54 54 55 55 54 54 52 52 52 53 53 54 54 51 49 50 52 53 53 52 51 51 51 50 50 50 50 51 52 51 51 51 50 50
7 12 15 26 31 29 19 20 22 21 22 15 22 32 27 36 37 36 40 42 45 45 46 47 49 52 53 53 54 54 55 55 55 56 57 57 57 57 58 58 58 58 59 59 59 59 59 59 60 61 60 60 60 60 60 60 60 60 59 59 59 58 55 54 54 54 53 54 53 53 53 52 52 54 54 53 51 52 52 51 51 51 50 51 51 49 48 50 51 49 48 48 49 50 49 48 49
11 10 16 21 29 34 28 35 18 21 20 23 23 24 30 37 42 41 41 44 45 45 47 48 49 51 53 53 54 55 55 55 55 56 57 57 57 58 58 58 58 59 59 59 59 58 59 59 59 60 59 59 59 59 60 60 60 59 59 59 58 56 55 55 54 54 53 53 53 54 53 53 54 54 54 53 53 52 51 52 51 52 51 52 51 51 53 53 51 50 50 50 49 48 48 49 49
17 21 20 15 26 22 16 20 23 25 20 18 20 26 32 41 43 45 44 46 46 46 46 47 49 51 51 53 53 55 55 55 55 56 56 56 57 58 58 58 58 57 58 60 59 59 59 58 59 59 59 58 59 59 60 60 60 60 59 59 59 57 55 55 54 54 53 53 52 53 54 53 53 54 53 54 52 53 52 51 50 51 53 53 52 52 52 50 51 51 51 51 48 49 49 47 47